GW3727 Weather Reports


time (UTC)temp
C
wind
direction
speed
KPH
gust
KPH
rain 1hr
cm
rain 24hr
cm
rain mn
cm
humidity
%
barometer
mb
20260505124529 5 18 0.0 0.0 0.00 0.00 0.03 81 1004.2
20260505123028 5 18 0.0 0.0 0.00 0.00 0.03 81 1002.1
20260505121559 5 18 0.0 0.0 0.00 0.00 0.03 80 1001.7
20260505121503 5 18 0.0 0.0 0.00 0.00 0.03 80 1001.7
20260505120053 5 18 0.0 0.0 0.00 0.00 0.03 80 1001.7
20260505114543 5 18 0.0 0.0 0.00 0.00 0.03 80 1001.5
20260505113028 5 18 0.0 0.0 0.00 0.00 0.03 82 1001.0
20260505111520 5 18 0.0 0.0 0.00 0.00 0.03 84 1001.0
20260505101548 5 18 0.0 0.0 0.00 0.00 0.03 85 1001.4
20260505100030 5 18 0.0 0.0 0.00 0.00 0.03 84 1001.1
20260505094554 5 18 0.0 0.0 0.00 0.00 0.03 84 1001.2
20260505093100 5 18 0.0 0.0 0.00 0.00 0.03 82 999.0
20260505091534 6 18 0.0 0.0 0.00 0.00 0.03 81 998.7
20260505090024 6 18 0.0 0.0 0.00 0.00 0.03 81 999.3
20260505084506 6 18 0.0 0.0 0.00 0.00 0.03 80 999.4
20260505083050 6 18 0.0 0.0 0.00 0.00 0.03 80 999.3
20260505081535 6 18 0.0 0.0 0.00 0.00 0.03 81 999.5
20260505080024 6 18 0.0 0.0 0.00 0.00 0.03 81 999.4
20260505074510 6 18 0.0 0.0 0.00 0.00 0.03 81 999.3
20260505073103 6 18 0.0 0.0 0.00 0.00 0.03 82 997.6
20260505071550 7 18 0.0 0.0 0.00 0.00 0.03 83 997.6
20260505070032 7 18 0.0 0.0 0.00 0.00 0.03 83 997.1
20260505064521 7 18 0.0 0.0 0.00 0.00 0.03 82 997.0
20260505063114 7 18 0.0 0.0 0.00 0.00 0.03 81 997.9
20260505063004 7 18 0.0 0.0 0.00 0.00 0.03 81 997.9
20260505061542 7 18 0.0 0.0 0.00 0.00 0.00 80 998.2
20260505060030 8 18 0.0 0.0 0.00 0.00 0.00 77 998.8
20260505054510 8 18 0.0 0.0 0.00 0.00 0.00 75 998.5
20260505053054 8 18 0.0 0.0 0.00 0.00 0.00 73 998.9
20260505051548 8 18 0.0 0.0 0.00 0.00 0.00 71 999.0
20260505041513 8 18 0.0 0.0 0.00 0.00 0.00 70 999.3
20260505040058 8 18 0.0 0.0 0.00 0.00 0.00 70 999.2
20260505040001 8 18 0.0 0.0 0.00 0.00 0.00 69 999.2
20260505034550 8 18 1.6 0.0 0.00 0.00 0.00 68 999.3
20260505033040 8 19 0.0 0.0 0.00 0.00 0.00 69 1000.1
20260505031538 8 19 0.0 0.0 0.00 0.00 0.00 69 999.5
20260505030023 8 15 1.6 0.0 0.00 0.00 0.00 69 999.7
20260505024514 8 11 0.0 0.0 0.00 0.00 0.00 69 999.8
20260505023101 8 349 0.0 0.0 0.00 0.00 0.00 70 1000.1
20260505021546 9 24 1.6 0.0 0.00 0.00 0.00 67 999.8
20260505020039 9 16 3.2 0.0 0.00 0.00 0.00 67 999.7
20260505014527 10 22 1.6 0.0 0.00 0.00 0.00 65 999.2
20260505013007 11 17 0.0 0.0 0.00 0.00 0.00 57 1001.0
20260505011555 12 17 1.6 0.0 0.00 0.00 0.00 53 999.8
20260505010108 13 213 3.2 0.0 0.00 0.00 0.00 44 999.4
20260505004537 15 12 1.6 0.0 0.00 0.00 0.00 31 998.6
20260505003032 15 16 1.6 0.0 0.00 0.00 0.00 29 999.0
20260505001514 16 89 0.0 0.0 0.00 0.00 0.00 28 998.0
20260505000100 16 11 1.6 0.0 0.00 0.00 0.00 28 997.9
20260505000004 16 11 1.6 0.0 0.00 0.00 0.00 27 997.9
20260504234550 17 34 0.0 0.0 0.00 0.00 0.00 28 997.8
20260504233040 17 264 0.0 0.0 0.00 0.00 0.00 28 998.7
20260504231527 16 264 0.0 0.0 0.00 0.00 0.00 28 998.4
20260504230016 16 264 1.6 0.0 0.00 0.00 0.00 30 999.1
20260504224511 15 223 1.6 0.0 0.00 0.00 0.00 34 999.1
20260504223103 15 281 1.6 0.0 0.00 0.00 0.00 36 999.1
20260504223002 15 175 1.6 0.0 0.00 0.00 0.00 35 999.1
20260504221602 15 37 0.0 0.0 0.00 0.00 0.00 41 999.4
20260504220042 17 150 1.6 0.0 0.00 0.00 0.00 29 998.0
20260504214534 18 48 3.2 0.0 0.00 0.00 0.00 21 996.9
20260504213025 20 286 0.0 0.0 0.00 0.00 0.00 18 996.2
20260504211510 20 286 0.0 0.0 0.00 0.00 0.00 17 996.0
20260504210054 21 286 0.0 0.0 0.00 0.00 0.00 16 996.0
20260504204550 21 286 0.0 0.0 0.00 0.00 0.00 16 996.2
20260504203046 20 300 1.6 0.0 0.00 0.00 0.00 17 996.5
20260504201530 21 26 0.0 0.0 0.00 0.00 0.00 17 996.5
20260504200026 22 17 1.6 0.0 0.00 0.00 0.00 14 995.8
20260504194510 23 257 3.2 0.0 0.00 0.00 0.00 12 995.3
20260504193101 25 226 1.6 0.0 0.00 0.00 0.00 14 994.5
20260504191544 25 258 1.6 0.0 0.00 0.00 0.00 11 995.2
20260504190022 23 171 1.6 0.0 0.00 0.00 0.00 16 995.9
20260504184514 23 39 1.6 0.0 0.00 0.00 0.00 13 996.0
20260504183054 23 71 1.6 0.0 0.00 0.00 0.00 13 996.7
20260504181530 22 172 1.6 0.0 0.00 0.00 0.00 15 997.1
20260504180020 21 149 1.6 0.0 0.00 0.00 0.00 14 997.3
20260504174509 21 160 3.2 0.0 0.00 0.00 0.00 17 997.6
20260504173052 22 90 0.0 0.0 0.00 0.00 0.00 17 996.9
20260504171536 21 16 1.6 0.0 0.00 0.00 0.00 18 997.3